Weather History for Skagway, AK

Change the Weather History Date:

Friday, January 17, 2014

  Actual Average Record
Temperature  
Mean Temperature 39 °F -  
Max Temperature 46 °F 27 °F 46 °F (2014)
Min Temperature 32 °F 20 °F -14 °F (1971)
Degree Days  
Heating Degree Days 26    
Moisture  
Dew Point 35 °F    
Average Humidity 90    
Maximum Humidity 96    
Minimum Humidity 73    
Precipitation  
Precipitation 0.00 in - - ()
Sea Level Pressure  
Sea Level Pressure 29.89 in    
Wind  
Wind Speed 7 mph (East)    
Max Wind Speed 20 mph    
Max Gust Speed 28 mph    
Visibility 4 miles    
Events Fog , Rain    
Averages and records for this station are not official NWS values.
T = Trace of Precipitation, MM = Missing Value Source: NWS Daily Summary

Daily Weather History Graph

Daily Weather History Graph

Search for Another Location

Airport:

Trip Planner

Search our weather history database for the weather conditions in past years. The results will help you decide how hot, cold, wet, or windy it might be!

Date:

Astronomy

Jan. 17, 2014 Rise Set
Actual Time 8:41 AM AKST 3:42 PM AKST
Civil Twilight 7:50 AM AKST 4:32 PM AKST
Nautical Twilight 6:58 AM AKST 5:25 PM AKST
Astronomical Twilight 6:08 AM AKST 6:14 PM AKST
Moon 6:17 PM AKST (1/17) 8:35 AM AKST (1/17)
Length of Visible Light 8h 42m
Length of Day
7h 01m
Full, 98% of the Moon is Illuminated
Jan 17
Full
Jan 23
Last Quarter
Jan 30
New
Feb 6
First Quarter
Feb 14
Full

Hourly Weather History & Observations

Time (AKST) Temp. Windchill Dew Point Humidity Pressure Visibility Wind Dir Wind Speed Gust Speed Precip Events Conditions
12:53 AM 46.0 °F 38.5 °F 37.9 °F 73% 30.10 in 10.0 mi SSW 19.6 mph 26.5 mph N/A   Mostly Cloudy
1:53 AM 45.0 °F 37.6 °F 37.9 °F 76% 30.12 in 10.0 mi SSW 17.3 mph - N/A   Overcast
3:53 AM 44.1 °F 36.5 °F 37.9 °F 79% 30.11 in 9.0 mi SSW 17.3 mph 27.6 mph N/A   Overcast
4:53 AM 44.1 °F 36.8 °F 39.0 °F 82% 30.10 in 10.0 mi South 16.1 mph 21.9 mph N/A   Overcast
5:53 AM 45.0 °F 39.7 °F 39.0 °F 80% 30.08 in 10.0 mi SSW 10.4 mph - N/A   Overcast
6:28 AM 43.0 °F 38.2 °F 37.9 °F 82% 30.06 in 10.0 mi SSW 8.1 mph - N/A   Overcast
6:53 AM 43.0 °F - 37.9 °F 82% 30.07 in 10.0 mi Calm Calm - N/A   Overcast
7:04 AM 41.0 °F 36.4 °F 36.0 °F 82% 30.06 in 10.0 mi NE 6.9 mph - N/A   Overcast
7:53 AM 39.9 °F 36.7 °F 36.0 °F 86% 30.06 in 10.0 mi Variable 4.6 mph - N/A   Overcast
8:53 AM 39.0 °F 36.8 °F 36.0 °F 89% 30.05 in 10.0 mi ENE 3.5 mph - N/A   Overcast
9:53 AM 39.0 °F 36.8 °F 36.0 °F 89% 30.06 in 3.0 mi NE 3.5 mph - 0.00 in Rain Light Rain
10:10 AM 39.0 °F 35.7 °F 35.1 °F 86% 30.04 in 7.0 mi NE 4.6 mph - 0.00 in   Overcast
10:53 AM 39.0 °F - 37.0 °F 93% 30.01 in 5.0 mi Calm Calm - 0.00 in   Overcast
11:15 AM 39.0 °F 36.8 °F 37.0 °F 93% 30.01 in 1.0 mi SW 3.5 mph - N/A   Overcast
11:18 AM 39.0 °F 35.7 °F 37.0 °F 93% 30.01 in 5.0 mi SW 4.6 mph - N/A   Overcast
11:48 AM 39.2 °F - 37.4 °F 93% 29.99 in 1.8 mi Calm Calm - N/A   Overcast
11:53 AM 39.0 °F - 37.0 °F 93% 29.99 in 1.2 mi Calm Calm - N/A   Overcast
12:17 PM 39.0 °F 36.8 °F 37.0 °F 93% 29.97 in 2.0 mi East 3.5 mph - N/A   Overcast
12:24 PM 39.0 °F - 37.0 °F 93% 29.97 in 2.5 mi Calm Calm - N/A   Overcast
12:35 PM 39.0 °F - 37.0 °F 93% 29.97 in 1.2 mi Calm Calm - N/A   Overcast
12:53 PM 39.0 °F - 37.9 °F 96% 29.96 in 1.0 mi Calm Calm - N/A   Overcast
1:05 PM 39.9 °F - 37.0 °F 89% 29.94 in 0.5 mi Calm Calm - N/A Fog Fog
1:34 PM 39.9 °F 35.8 °F 37.0 °F 89% 29.92 in 1.5 mi ENE 5.8 mph - N/A   Mostly Cloudy
1:36 PM 39.9 °F 35.1 °F 37.0 °F 89% 29.92 in 3.0 mi NE 6.9 mph - N/A   Mostly Cloudy
1:50 PM 39.2 °F 35.0 °F 37.4 °F 93% 29.92 in 6.0 mi Variable 5.8 mph - N/A   Scattered Clouds
1:53 PM 39.0 °F 35.7 °F 37.0 °F 93% 29.92 in 2.0 mi Variable 4.6 mph - N/A   Mostly Cloudy
1:57 PM 39.0 °F 34.0 °F 37.0 °F 93% 29.92 in 1.2 mi Variable 6.9 mph - N/A   Mostly Cloudy
2:05 PM 39.9 °F - 37.0 °F 89% 29.91 in 2.0 mi Calm Calm - N/A   Scattered Clouds
2:14 PM 39.0 °F - 37.0 °F 93% 29.90 in 1.5 mi Calm Calm - N/A   Mostly Cloudy
2:16 PM 39.0 °F - 37.0 °F 93% 29.90 in 1.0 mi Calm Calm - N/A   Mist
2:23 PM 39.0 °F 36.8 °F 37.0 °F 93% 29.91 in 1.0 mi NE 3.5 mph - N/A   Mist
2:29 PM 39.0 °F - 37.0 °F 93% 29.90 in 0.8 mi Calm Calm - N/A   Mist
2:41 PM 37.9 °F - 36.0 °F 93% 29.89 in 1.0 mi Calm Calm - N/A   Mist
2:48 PM 37.4 °F 34.9 °F 35.6 °F 93% 29.89 in 2.0 mi North 3.5 mph - N/A   Scattered Clouds
2:53 PM 39.0 °F 33.4 °F 36.0 °F 89% 29.88 in 10.0 mi North 8.1 mph - N/A   Scattered Clouds
3:53 PM 39.0 °F - 36.0 °F 89% 29.86 in 10.0 mi Calm Calm - N/A   Clear
4:53 PM 36.0 °F 33.3 °F 34.0 °F 93% 29.83 in 10.0 mi NNE 3.5 mph - N/A   Clear
5:53 PM 35.1 °F - 33.1 °F 92% 29.80 in 4.0 mi Calm Calm - N/A   Partly Cloudy
6:53 PM 33.1 °F 30.0 °F 30.9 °F 92% 29.76 in 4.0 mi NE 3.5 mph - N/A   Clear
7:40 PM 33.1 °F - 30.9 °F 92% 29.73 in 4.0 mi Calm Calm - N/A   Partly Cloudy
7:53 PM 33.1 °F - 30.0 °F 89% 29.72 in 5.0 mi Calm Calm - N/A   Partly Cloudy
8:53 PM 32.0 °F - 30.0 °F 92% 29.69 in 4.0 mi Calm Calm - N/A   Partly Cloudy
9:25 PM 32.0 °F - 30.0 °F 92% 29.66 in 2.0 mi Calm Calm - N/A   Mostly Cloudy
9:53 PM 33.1 °F - 30.9 °F 92% 29.65 in 1.8 mi Calm Calm - N/A   Overcast
10:01 PM 33.1 °F - 30.9 °F 92% 29.66 in 3.0 mi Calm Calm - N/A   Overcast
10:17 PM 33.1 °F 30.0 °F 30.9 °F 92% 29.65 in 1.8 mi South 3.5 mph - N/A   Mostly Cloudy
10:21 PM 33.1 °F - 30.9 °F 92% 29.65 in 0.8 mi Calm Calm - N/A   Overcast
10:28 PM 32.0 °F 28.7 °F 30.9 °F 96% 29.64 in 0.5 mi North 3.5 mph - N/A Fog Fog
10:53 PM 32.0 °F - 30.0 °F 92% 29.63 in 0.8 mi Calm Calm - N/A   Mist
11:37 PM 32.0 °F - 30.9 °F 96% 29.60 in 0.2 mi Calm Calm - N/A Fog Fog
11:53 PM 32.0 °F - 30.0 °F 92% 29.58 in 0.2 mi Calm Calm - N/A Fog Fog